Weather in Tula

Russia / Tula Oblast     54°11′35″N   37°37′02″E
temp.,
°C
wind,
m/s
gust,
m/s
humid.,
%
clouds,
%
prec.,
mm/h
press.,
hPa
HPBL,
m
20 january, thu
thu2000:00−10ssw4119481 0.0 1015216
03:00−10ssw51296100 0.0 1013261
06:00−8ssw51196100 0.1 1011290
09:00−8ssw61395100 0.1 1010348
12:00−5ssw71494100 0.1 1009463
15:00−5ssw71693100 0.1 1007588
18:00−6s71692100 0.1 1006530
21:00−6s71693100 0.1 1005631
21 january, fri
fri2100:00−5s71595100 0.8 1004619
03:00−5s61395100 1.6 1003556
06:00−5s61295100 1.3 1001553
09:00−6sse51295100 2.9 1000541
12:00−5sse51096100 1.5 999545
15:00−3s4897100 2.6 998545
18:00−6ssw4989100 0.1 999277
21:00−9sse41096100 0.1 1000213
22 january, sat
sat2200:00−7sse51294100 0.1 1000442
03:00−4s51195100 0.6 1000487
06:00−4s51096100 0.8 1001497
09:00−5s4995100 1.1 1004334
12:00−5s479499 0.3 1007429
15:00−5sse479493 0.5 1009433
18:00−10se249768 0.1 101360
21:00−14ese229986 0.1 101628
23 january, sun
sun2300:00−14ese229975 0.1 101814
03:00−18e2110097 0.1 102110
06:00−18e1110096 0.0 10239
09:00−19ene11100100 0.1 102610
12:00−11ene129691 0.0 1028120
15:00−9nne249523 0.1 1029113
18:00−15ne249965 0.0 103247
21:00−16nne389984 0.0 103391
24 january, mon
mon2400:00−16ne389995 0.0 1034105
03:00−15ne399998 0.0 1033132
06:00−15ne41199100 0.0 1033178
09:00−14ne51397100 0.0 1033234
12:00−10ne51193100 0.0 1033288
15:00−9ne499485 0.0 1031306
18:00−14nne229888 0.0 103214
21:00−16nne259996 0.1 103151